Location: Fours
(44.3167°N, 6.7000°E)
Time: 03:54:06
(UTC+00:00)

Cosmos 2098 - Pass Details

Date: 02 June 2022
Orbit: 387 x 1576 km, 82.9° (Epoch: 04 July)

Event Time Altitude Azimuth Distance (km) Brightness Sun altitude
Rises 01:43:55 0° 4° (N) 2,293 9.1 -16.9°
Reaches altitude 10° 01:46:07 10° 20° (NNE) 1,431 8.2 -16.7°
Maximum altitude 01:48:37 24° 77° (ENE) 898 6.4 -16.5°
Drops below altitude 10° 01:51:18 10° 134° (SE) 1,544 7.0 -16.2°
Enters shadow 01:52:31 - 143° (SE) 2,018 7.5 -16.1°
